Cosmos 1470 Rocket - Orbit

View from above orbital plane
View from above orbital plane
View from above satellite
View from above satellite

Ground track
Ground track

The orbit data is extracted from the following two-line orbital elements,

1 14148U 83061B   13140.16932858  .00000393  00000-0  46017-4 0  3381
2 14148 082.5206 223.4224 0022138 193.9150 196.2315 14.82323630614174
Epoch (UTC): 20 May 2013 04:03:49
Eccentricity: 0.0022138
inclination: 82.5206°
perigee height: 606 km
apogee height: 637 km
right ascension of ascending node: 223.4224°
argument of perigee: 193.9150°
revolutions per day: 14.82323630
mean anomaly at epoch: 196.2315°
orbit number at epoch: 61417

The dashed part of the orbit path shows where the satellite is in the earth's shadow,  

Developed and maintained by Chris Peat, Heavens-Above GmbH. Please read the updated FAQ before sending e-mail. Imprint. DLR